Location: Newark
(34.0131°N, 4.3314°W)
Time: 00:44:18
(UTC+00:00)

A-11 Canister half - Pass Details

Date: 29 October 2019
Orbit: 1514 x 1686 km, 47.2° (Epoch: 11 November)

Event Time Altitude Azimuth Distance (km) Brightness Sun altitude
Rises 08:42:27 0° 291° (WNW) 4,755 11.0 23.1°
Reaches altitude 10° 08:47:01 10° 272° (W) 3,736 10.6 23.9°
Maximum altitude 08:52:21 17° 237° (WSW) 3,198 10.6 24.7°
Drops below altitude 10° 08:57:38 10° 201° (SSW) 3,674 11.3 25.6°
Sets 09:02:08 0° 182° (S) 4,641 12.0 26.3°
